{"data":{"norad_id":36411,"intl_designator":"2010-008A","name":"EWS-G2 (GOES 15)","alt_names":[],"object_type":"PAYLOAD","status":"ACTIVE","operator":null,"country":"US","launch_date":"2010-03-04","launch_site_code":"AFETR","launch_vehicle":null,"mission":null,"orbit_class":"UNKNOWN","rcs_meters":6.3096,"size_class":null,"mass_kg":null,"dimensions":null,"purposes":["comms","earth_obs"],"wikipedia_slug":null,"has_3d_model":false,"image_url":null,"decayed_at":null,"tle_current":{"epoch":"2026-09-20T00:06:55.215072Z","epoch_age_seconds":57329,"freshness":"FRESH","line1":"1 36411U 10008A   26263.00480573  .00000018  00000+0  00000+0 0  9997","line2":"2 36411   1.5326  81.8089 0005158  81.8696 260.2672  1.00272447 60586","mean_motion":1.00272447,"eccentricity":0.0005158,"inclination_deg":1.5326,"raan_deg":81.8089,"arg_perigee_deg":81.8696,"mean_anomaly_deg":260.2672,"bstar":0,"rev_number":6058,"period_min":1436.0874228989,"perigee_km":35764.660906558,"apogee_km":35808.157852603,"semimajor_km":42164.54637958,"source":"CELESTRAK","updated_at":"2026-09-20T09:00:35.162327Z"}}}